TimeGMT,TemperatureF,Dew PointF,Humidity,Sea Level PressureIn,VisibilityMPH,Wind Direction,Wind SpeedMPH,Gust SpeedMPH,PrecipitationIn,Events,Conditions,WindDirDegrees,DateUTC
12:50 AM,35.6,35.6,100,29.18,6.2,North,5.8,-,N/A,,Partly Cloudy,350,2013-03-18 00:50:00
1:50 AM,37.4,35.6,93,29.18,6.2,North,5.8,-,N/A,,Partly Cloudy,350,2013-03-18 01:50:00
2:50 AM,37,36,94,29.20,12,NNW,5.8,,,,Mostly Cloudy,330,2013-03-18 02:50:00
2:50 AM,37.4,35.6,93,29.18,6.2,NNW,5.8,-,N/A,,Scattered Clouds,330,2013-03-18 02:50:00
3:50 AM,37.4,35.6,93,29.18,6.2,NW,4.6,-,N/A,,Partly Cloudy,320,2013-03-18 03:50:00
4:50 AM,37.4,35.6,93,29.18,6.2,NW,8.1,-,N/A,,Partly Cloudy,320,2013-03-18 04:50:00
5:50 AM,38,37,93,29.21,12,NNW,10.4,,,Rain,Light Rain Showers,340,2013-03-18 05:50:00
5:50 AM,37.4,37.4,100,29.18,6.2,NNW,10.4,-,N/A,,Mostly Cloudy,340,2013-03-18 05:50:00
6:50 AM,37.4,35.6,93,29.21,6.2,NW,5.8,-,N/A,,Partly Cloudy,320,2013-03-18 06:50:00
7:50 AM,39.2,37.4,93,29.21,6.2,NW,8.1,-,N/A,,Partly Cloudy,310,2013-03-18 07:50:00
8:50 AM,44,39,76,29.23,16,WNW,6.9,,,,Scattered Clouds,290,2013-03-18 08:50:00
8:50 AM,44.6,39.2,81,29.21,6.2,WNW,6.9,-,N/A,,Mostly Cloudy,290,2013-03-18 08:50:00
9:50 AM,44.6,39.2,81,29.21,6.2,West,6.9,-,N/A,,Scattered Clouds,260,2013-03-18 09:50:00
10:50 AM,46.4,39.2,76,29.21,6.2,WSW,5.8,-,N/A,,Scattered Clouds,240,2013-03-18 10:50:00
11:50 AM,46,40,74,29.25,16,WSW,6.9,,,,Mostly Cloudy,240,2013-03-18 11:50:00
11:50 AM,46.4,41.0,81,29.24,6.2,WSW,6.9,-,N/A,,Scattered Clouds,240,2013-03-18 11:50:00
12:50 PM,46.4,39.2,76,29.24,6.2,WSW,6.9,-,N/A,,Mostly Cloudy,240,2013-03-18 12:50:00
1:50 PM,46.4,39.2,76,29.24,6.2,SW,6.9,-,N/A,,Scattered Clouds,220,2013-03-18 13:50:00
2:50 PM,46,40,73,29.26,4,West,6.9,,,,Mostly Cloudy,260,2013-03-18 14:50:00
2:50 PM,46.4,41.0,81,29.24,4.3,West,6.9,-,N/A,,Scattered Clouds,260,2013-03-18 14:50:00
3:50 PM,44.6,37.4,76,29.27,2.5,NNW,6.9,-,N/A,Rain,Light Rain Showers,330,2013-03-18 15:50:00
4:01 PM,39.2,35.6,87,29.27,1.6,ENE,15.0,-,N/A,Rain,Rain Showers,70,2013-03-18 16:01:00
4:37 PM,41.0,37.4,87,29.27,4.3,East,6.9,-,N/A,Rain,Rain Showers,80,2013-03-18 16:37:00
4:50 PM,41.0,37.4,87,29.27,6.2,NNE,4.6,-,N/A,Rain,Light Rain Showers,30,2013-03-18 16:50:00
5:50 PM,42,37,77,29.32,9,NNE,9.2,,,Rain,Light Rain Showers,20,2013-03-18 17:50:00
5:50 PM,41.0,37.4,87,29.30,6.2,NNE,9.2,-,N/A,,Scattered Clouds,20,2013-03-18 17:50:00
6:50 PM,39.2,37.4,93,29.33,6.2,NNE,8.1,-,N/A,,Scattered Clouds,20,2013-03-18 18:50:00
7:50 PM,39.2,35.6,87,29.36,6.2,NNW,6.9,-,N/A,,Scattered Clouds,340,2013-03-18 19:50:00
8:50 PM,39,37,90,29.39,11,NNW,8.1,,,Rain,Light Rain Showers,340,2013-03-18 20:50:00
8:50 PM,39.2,37.4,93,29.36,6.2,NNW,8.1,-,N/A,,Scattered Clouds,340,2013-03-18 20:50:00
9:50 PM,39.2,35.6,87,29.36,6.2,North,6.9,-,N/A,,Mostly Cloudy,10,2013-03-18 21:50:00
10:50 PM,39.2,35.6,87,29.39,6.2,NNW,5.8,-,N/A,,Scattered Clouds,330,2013-03-18 22:50:00
11:50 PM,36,35,92,29.41,16,West,4.6,,,,Partly Cloudy,270,2013-03-18 23:50:00
11:50 PM,35.6,33.8,93,29.39,6.2,West,4.6,-,N/A,,Scattered Clouds,270,2013-03-18 23:50:00